| time (UTC) | temp C | wind direction | speed KPH | gust KPH | rain 1hr cm | rain 24hr cm | rain mn cm | humidity % | barometer mb |
| 20260906152605 | 33 | 124 | 1.6 | 9.7 | 0.00 | 0.00 | 0.00 | 54 | 1012.0 |
| 20260906145339 | 32 | 86 | 1.6 | 6.4 | 0.00 | 0.00 | 0.00 | 61 | 1011.8 |
| 20260906144351 | 31 | 40 | 1.6 | 4.8 | 0.00 | 0.00 | 0.00 | 62 | 1011.8 |
| 20260906142248 | 30 | 143 | 0.0 | 3.2 | 0.00 | 0.00 | 0.00 | 68 | 1011.8 |
| 20260906141252 | 29 | 143 | 0.0 | 3.2 | 0.00 | 0.00 | 0.00 | 70 | 1011.9 |
| 20260906140215 | 28 | 143 | 0.0 | 0.0 | 0.00 | 0.00 | 0.00 | 73 | 1012.1 |
| 20260906135143 | 27 | 143 | 0.0 | 0.0 | 0.00 | 0.00 | 0.00 | 77 | 1012.0 |
| 20260906134127 | 26 | 143 | 0.0 | 0.0 | 0.00 | 0.00 | 0.00 | 82 | 1012.0 |
| 20260906133135 | 26 | 143 | 0.0 | 0.0 | 0.00 | 0.00 | 0.00 | 84 | 1012.1 |
| 20260906132137 | 25 | 143 | 0.0 | 1.6 | 0.00 | 0.00 | 0.00 | 86 | 1012.1 |
| 20260906131110 | 24 | 143 | 0.0 | 0.0 | 0.00 | 0.00 | 0.00 | 86 | 1012.0 |
| 20260906130057 | 24 | 143 | 0.0 | 0.0 | 0.00 | 0.00 | 0.00 | 85 | 1011.8 |
| 20260906125118 | 23 | 143 | 0.0 | 0.0 | 0.00 | 0.00 | 0.00 | 85 | 1011.7 |
| 20260906124054 | 23 | 143 | 0.0 | 0.0 | 0.00 | 0.00 | 0.00 | 85 | 1011.7 |
| 20260906123041 | 23 | 144 | 0.0 | 0.0 | 0.00 | 0.00 | 0.00 | 85 | 1011.7 |
| 20260906122025 | 23 | 128 | 0.0 | 0.0 | 0.00 | 0.00 | 0.00 | 84 | 1011.6 |
| 20260906121045 | 23 | 128 | 0.0 | 0.0 | 0.00 | 0.00 | 0.00 | 84 | 1011.5 |
| 20260906120022 | 23 | 128 | 0.0 | 0.0 | 0.00 | 0.00 | 0.00 | 84 | 1011.4 |
| 20260906115019 | 24 | 128 | 0.0 | 0.0 | 0.00 | 0.00 | 0.00 | 83 | 1011.4 |
| 20260906114022 | 24 | 128 | 0.0 | 0.0 | 0.00 | 0.00 | 0.00 | 83 | 1011.3 |
| 20260906113025 | 24 | 128 | 0.0 | 0.0 | 0.00 | 0.00 | 0.00 | 83 | 1011.2 |
| 20260906112025 | 24 | 128 | 0.0 | 0.0 | 0.00 | 0.00 | 0.00 | 82 | 1011.1 |
| 20260906111000 | 24 | 128 | 0.0 | 0.0 | 0.00 | 0.00 | 0.00 | 82 | 1011.0 |
| 20260906105954 | 24 | 128 | 0.0 | 0.0 | 0.00 | 0.00 | 0.00 | 82 | 1010.9 |
| 20260906104948 | 24 | 128 | 0.0 | 0.0 | 0.00 | 0.00 | 0.00 | 81 | 1010.7 |
| 20260906103939 | 25 | 128 | 0.0 | 0.0 | 0.00 | 0.00 | 0.00 | 81 | 1010.7 |
| 20260906102928 | 25 | 128 | 0.0 | 0.0 | 0.00 | 0.00 | 0.00 | 81 | 1010.7 |
| 20260906101907 | 25 | 128 | 0.0 | 0.0 | 0.00 | 0.00 | 0.00 | 80 | 1010.7 |
| 20260906100918 | 25 | 128 | 0.0 | 0.0 | 0.00 | 0.00 | 0.00 | 80 | 1010.6 |
| 20260906095908 | 25 | 128 | 0.0 | 0.0 | 0.00 | 0.00 | 0.00 | 79 | 1010.6 |
| 20260906094854 | 25 | 128 | 0.0 | 0.0 | 0.00 | 0.00 | 0.00 | 78 | 1010.5 |
| 20260906092730 | 26 | 128 | 0.0 | 0.0 | 0.00 | 0.00 | 0.00 | 78 | 1010.4 |
| 20260906091655 | 26 | 128 | 0.0 | 0.0 | 0.00 | 0.00 | 0.00 | 77 | 1010.2 |
| 20260906090627 | 26 | 128 | 0.0 | 0.0 | 0.00 | 0.00 | 0.00 | 76 | 1010.1 |
| 20260906085642 | 26 | 128 | 0.0 | 0.0 | 0.00 | 0.00 | 0.00 | 75 | 1010.1 |
| 20260906084639 | 26 | 128 | 0.0 | 0.0 | 0.00 | 0.00 | 0.00 | 75 | 1010.1 |
| 20260906082527 | 26 | 128 | 0.0 | 0.0 | 0.00 | 0.00 | 0.00 | 75 | 1010.2 |
| 20260906081458 | 26 | 128 | 0.0 | 0.0 | 0.00 | 0.00 | 0.00 | 77 | 1009.9 |
| 20260906080423 | 26 | 128 | 0.0 | 0.0 | 0.00 | 0.00 | 0.00 | 77 | 1009.8 |
| 20260906075407 | 26 | 128 | 0.0 | 0.0 | 0.00 | 0.00 | 0.00 | 76 | 1010.0 |
| 20260906074426 | 26 | 128 | 0.0 | 0.0 | 0.00 | 0.00 | 0.00 | 76 | 1010.1 |
| 20260906073423 | 26 | 128 | 0.0 | 0.0 | 0.00 | 0.00 | 0.00 | 76 | 1010.2 |
| 20260906072422 | 26 | 128 | 0.0 | 0.0 | 0.00 | 0.00 | 0.00 | 75 | 1010.3 |
| 20260906071349 | 26 | 128 | 0.0 | 0.0 | 0.00 | 0.00 | 0.00 | 74 | 1010.4 |
| 20260906070411 | 26 | 128 | 0.0 | 0.0 | 0.00 | 0.00 | 0.00 | 75 | 1010.4 |
| 20260906065420 | 26 | 128 | 0.0 | 0.0 | 0.00 | 0.00 | 0.00 | 74 | 1010.5 |
| 20260906062124 | 26 | 128 | 0.0 | 0.0 | 0.00 | 0.00 | 0.00 | 71 | 1010.4 |
| 20260906061126 | 26 | 128 | 0.0 | 0.0 | 0.00 | 0.00 | 0.00 | 70 | 1010.3 |
| 20260906055031 | 27 | 128 | 0.0 | 0.0 | 0.00 | 0.00 | 0.00 | 69 | 1010.4 |
| 20260906053955 | 27 | 128 | 0.0 | 0.0 | 0.00 | 0.00 | 0.00 | 69 | 1010.4 |
| 20260906052925 | 27 | 128 | 0.0 | 0.0 | 0.00 | 0.00 | 0.00 | 67 | 1010.5 |
| 20260906051929 | 28 | 128 | 0.0 | 0.0 | 0.00 | 0.00 | 0.00 | 66 | 1010.7 |
| 20260906044655 | 29 | 128 | 0.0 | 0.0 | 0.00 | 0.00 | 0.00 | 61 | 1010.4 |
| 20260906043625 | 30 | 128 | 0.0 | 0.0 | 0.00 | 0.00 | 0.00 | 60 | 1010.3 |
| 20260906042558 | 30 | 128 | 0.0 | 0.0 | 0.00 | 0.00 | 0.00 | 59 | 1010.4 |
| 20260906041603 | 30 | 128 | 0.0 | 0.0 | 0.00 | 0.00 | 0.00 | 58 | 1010.2 |
| 20260906040547 | 30 | 128 | 0.0 | 0.0 | 0.00 | 0.00 | 0.00 | 57 | 1010.2 |
| 20260906035534 | 30 | 128 | 0.0 | 1.6 | 0.00 | 0.00 | 0.00 | 57 | 1010.2 |
| 20260906034550 | 31 | 128 | 0.0 | 0.0 | 0.00 | 0.00 | 0.00 | 56 | 1010.3 |
| 20260906033559 | 31 | 128 | 0.0 | 3.2 | 0.00 | 0.00 | 0.00 | 55 | 1010.3 |
| 20260906032554 | 31 | 128 | 0.0 | 4.8 | 0.00 | 0.00 | 0.00 | 55 | 1010.4 |
| 20260906031548 | 31 | 178 | 1.6 | 8.0 | 0.00 | 0.00 | 0.00 | 54 | 1010.4 |
| 20260906030545 | 31 | 209 | 0.0 | 8.0 | 0.00 | 0.00 | 0.00 | 54 | 1010.3 |
| 20260906025535 | 31 | 123 | 0.0 | 8.0 | 0.00 | 0.00 | 0.00 | 54 | 1010.2 |
| 20260906024531 | 31 | 149 | 1.6 | 8.0 | 0.00 | 0.00 | 0.00 | 54 | 1010.2 |
| 20260906023552 | 32 | 132 | 1.6 | 6.4 | 0.00 | 0.00 | 0.00 | 53 | 1010.0 |
| 20260906022526 | 32 | 167 | 1.6 | 9.7 | 0.00 | 0.00 | 0.00 | 52 | 1009.7 |
| 20260906021526 | 32 | 157 | 1.6 | 12.9 | 0.00 | 0.00 | 0.00 | 51 | 1009.6 |
| 20260906020535 | 33 | 155 | 3.2 | 12.9 | 0.00 | 0.00 | 0.00 | 49 | 1009.5 |
| 20260906015521 | 32 | 123 | 1.6 | 11.3 | 0.00 | 0.00 | 0.00 | 49 | 1009.3 |
| 20260906013337 | 32 | 130 | 0.0 | 0.0 | 0.00 | 0.00 | 0.00 | 48 | 1008.8 |
| 20260906010211 | 33 | 130 | 0.0 | 0.0 | 0.00 | 0.00 | 0.00 | 45 | 1008.5 |
| 20260906005134 | 35 | 130 | 0.0 | 0.0 | 0.00 | 0.00 | 0.00 | 42 | 1008.4 |
| 20260906004138 | 35 | 130 | 0.0 | 0.0 | 0.00 | 0.00 | 0.00 | 42 | 1008.5 |
| 20260906003146 | 36 | 130 | 0.0 | 4.8 | 0.00 | 0.00 | 0.00 | 41 | 1008.4 |
| 20260906000941 | 36 | 93 | 0.0 | 1.6 | 0.00 | 0.00 | 0.00 | 37 | 1008.5 |
| 20260905235949 | 36 | 185 | 1.6 | 4.8 | 0.00 | 0.00 | 0.00 | 36 | 1008.4 |
| 20260905233850 | 37 | 156 | 1.6 | 8.0 | 0.00 | 0.00 | 0.00 | 35 | 1008.2 |
| 20260905232848 | 37 | 160 | 0.0 | 8.0 | 0.00 | 0.00 | 0.00 | 34 | 1008.2 |
| 20260905224523 | 37 | 244 | 1.6 | 12.9 | 0.00 | 0.00 | 0.00 | 34 | 1008.2 |
| 20260905223459 | 37 | 84 | 3.2 | 12.9 | 0.00 | 0.00 | 0.00 | 34 | 1008.2 |
| 20260905222440 | 37 | 119 | 3.2 | 11.3 | 0.00 | 0.00 | 0.00 | 34 | 1008.2 |
| 20260905221446 | 37 | 150 | 3.2 | 11.3 | 0.00 | 0.00 | 0.00 | 34 | 1008.3 |
| 20260905220444 | 38 | 173 | 1.6 | 8.0 | 0.00 | 0.00 | 0.00 | 34 | 1008.4 |
| 20260905214255 | 37 | 137 | 3.2 | 11.3 | 0.00 | 0.00 | 0.00 | 35 | 1008.6 |
| 20260905213230 | 37 | 137 | 3.2 | 11.3 | 0.00 | 0.00 | 0.00 | 35 | 1008.6 |
| 20260905212207 | 37 | 128 | 1.6 | 8.0 | 0.00 | 0.00 | 0.00 | 35 | 1008.8 |
| 20260905211146 | 37 | 119 | 3.2 | 9.7 | 0.00 | 0.00 | 0.00 | 35 | 1008.8 |
| 20260905205036 | 38 | 275 | 1.6 | 8.0 | 0.00 | 0.00 | 0.00 | 37 | 1009.2 |
| 20260905204027 | 38 | 125 | 1.6 | 8.0 | 0.00 | 0.00 | 0.00 | 35 | 1009.4 |
| 20260905203044 | 37 | 157 | 1.6 | 9.7 | 0.00 | 0.00 | 0.00 | 36 | 1009.4 |
| 20260905200901 | 37 | 22 | 3.2 | 11.3 | 0.00 | 0.00 | 0.00 | 37 | 1009.8 |
| 20260905195920 | 36 | 227 | 3.2 | 11.3 | 0.00 | 0.00 | 0.00 | 39 | 1010.0 |
| 20260905193753 | 36 | 90 | 3.2 | 11.3 | 0.00 | 0.00 | 0.00 | 38 | 1010.2 |
| 20260905192739 | 36 | 333 | 1.6 | 12.9 | 0.00 | 0.00 | 0.00 | 38 | 1010.3 |
| 20260905190549 | 37 | 200 | 3.2 | 8.0 | 0.00 | 0.00 | 0.00 | 39 | 1010.7 |
| 20260905185534 | 36 | 161 | 1.6 | 9.7 | 0.00 | 0.00 | 0.00 | 40 | 1010.9 |
| 20260905184551 | 36 | 187 | 3.2 | 12.9 | 0.00 | 0.00 | 0.00 | 40 | 1011.1 |
| 20260905182419 | 36 | 133 | 3.2 | 8.0 | 0.00 | 0.00 | 0.00 | 40 | 1011.4 |
| 20260905181420 | 36 | 196 | 1.6 | 11.3 | 0.00 | 0.00 | 0.00 | 41 | 1011.5 |
| 20260905180401 | 36 | 126 | 1.6 | 12.9 | 0.00 | 0.00 | 0.00 | 41 | 1011.7 |
| 20260905175331 | 35 | 46 | 3.2 | 12.9 | 0.00 | 0.00 | 0.00 | 44 | 1011.9 |
| 20260905174350 | 35 | 201 | 3.2 | 8.0 | 0.00 | 0.00 | 0.00 | 43 | 1012.0 |
| 20260905172233 | 35 | 261 | 3.2 | 12.9 | 0.00 | 0.00 | 0.00 | 47 | 1012.1 |
| 20260905171204 | 35 | 229 | 1.6 | 9.7 | 0.00 | 0.00 | 0.00 | 46 | 1012.2 |
| 20260905170224 | 35 | 219 | 1.6 | 8.0 | 0.00 | 0.00 | 0.00 | 44 | 1012.3 |
| 20260905165230 | 34 | 119 | 1.6 | 11.3 | 0.00 | 0.00 | 0.00 | 47 | 1012.3 |
| 20260905164218 | 33 | 43 | 1.6 | 11.3 | 0.00 | 0.00 | 0.00 | 46 | 1012.5 |
| 20260905163201 | 34 | 144 | 1.6 | 6.4 | 0.00 | 0.00 | 0.00 | 46 | 1012.4 |
| 20260905155902 | 33 | 246 | 0.0 | 4.8 | 0.00 | 0.00 | 0.00 | 52 | 1012.4 |
| 20260905154833 | 32 | 238 | 1.6 | 6.4 | 0.00 | 0.00 | 0.00 | 53 | 1012.6 |
| 20260905153805 | 32 | 286 | 1.6 | 6.4 | 0.00 | 0.00 | 0.00 | 53 | 1012.6 |